timestamp,surface_pressure_avg,surface_temp_avg,battery_voltage,lat,long
2023-08-04 00:09:00+00:00,362.4629,20.1,12.65,47.84626,-54.09684
2023-08-04 00:19:00+00:00,371.6895,20.02,12.57,47.84626,-54.09684
2023-08-04 00:29:00+00:00,376.0613,20.1,12.57,47.84626,-54.09684
2023-08-04 00:39:00+00:00,378.2779,20.2,12.57,47.84626,-54.09684
2023-08-04 00:49:00+00:00,382.9012,20.13,12.57,47.84626,-54.09684
2023-08-04 00:59:00+00:00,385.2079,20.18,12.57,47.84626,-54.09684
2023-08-04 01:09:00+00:00,383.8663,20.19,12.57,47.84626,-54.09684
2023-08-04 01:19:00+00:00,384.9362,20.1,12.57,47.84626,-54.09684
2023-08-04 01:29:00+00:00,387.9847,20.17,12.57,47.84626,-54.09684
2023-08-04 01:39:00+00:00,388.5862,20.3,12.57,47.84626,-54.09684
2023-08-04 01:49:00+00:00,385.0228,20.39,12.57,47.84626,-54.09684
2023-08-04 01:59:00+00:00,384.7697,20.4,12.57,47.84626,-54.09684
2023-08-04 02:09:00+00:00,380.6312,20.4,12.57,47.84626,-54.09684
2023-08-04 02:19:00+00:00,377.6697,20.42,12.57,47.84626,-54.09684
2023-08-04 02:29:00+00:00,373.1197,20.48,12.57,47.84626,-54.09684
2023-08-04 02:39:00+00:00,367.1462,20.48,12.57,47.84626,-54.09684
2023-08-04 02:49:00+00:00,363.6213,20.4,12.57,47.84626,-54.09684
2023-08-04 02:59:00+00:00,357.0096,20.45,12.57,47.84626,-54.09684
2023-08-04 03:09:00+00:00,344.6663,20.5,12.57,47.84626,-54.09684
2023-08-04 03:19:00+00:00,338.3279,20.5,12.57,47.84626,-54.09684
2023-08-04 03:29:00+00:00,332.6647,20.54,12.57,47.84626,-54.09684
2023-08-04 03:39:00+00:00,324.093,20.6,12.57,47.84626,-54.09684
2023-08-04 03:49:00+00:00,309.668,20.69,12.57,47.84626,-54.09684
2023-08-04 03:59:00+00:00,297.308,20.7,12.57,47.84626,-54.09684
2023-08-04 04:09:00+00:00,287.6914,20.69,12.57,47.84626,-54.09684
2023-08-04 04:19:00+00:00,275.8214,20.67,12.57,47.84626,-54.09684
2023-08-04 04:29:00+00:00,263.9947,20.68,12.57,47.84626,-54.09684
2023-08-04 04:39:00+00:00,252.9314,20.6,12.57,47.84626,-54.09684
2023-08-04 04:49:00+00:00,243.8731,20.5,12.57,47.84626,-54.09684
2023-08-04 04:59:00+00:00,232.2548,20.49,12.57,47.84626,-54.09684
2023-08-04 05:09:00+00:00,221.6481,20.4,12.57,47.84626,-54.09684
2023-08-04 05:19:00+00:00,212.9948,20.4,12.49,47.84626,-54.09684
2023-08-04 05:29:00+00:00,202.6981,20.43,12.49,47.84626,-54.09684
2023-08-04 05:39:00+00:00,194.5765,20.49,12.49,47.84626,-54.09684
2023-08-04 05:49:00+00:00,190.3698,20.5,12.49,47.84626,-54.09684
2023-08-04 05:59:00+00:00,183.7432,20.5,12.49,47.84626,-54.09684
2023-08-04 06:09:00+00:00,171.8065,20.6,12.49,47.84626,-54.09684
2023-08-04 06:19:00+00:00,165.8198,20.67,12.49,47.84626,-54.09684
2023-08-04 06:29:00+00:00,167.8632,20.69,12.49,47.84626,-54.09684
2023-08-04 06:39:00+00:00,164.6548,20.69,12.49,47.84626,-54.09684
2023-08-04 06:49:00+00:00,161.1232,20.7,12.49,47.84626,-54.09684
2023-08-04 06:59:00+00:00,164.2932,20.7,12.49,47.84626,-54.09684
2023-08-04 07:09:00+00:00,165.9032,20.7,12.49,47.84626,-54.09684
2023-08-04 07:19:00+00:00,160.0465,20.7,12.49,47.84626,-54.09684
2023-08-04 07:29:00+00:00,160.4532,20.68,12.49,47.84626,-54.09684
2023-08-04 07:39:00+00:00,169.0081,20.69,12.49,47.84626,-54.09684
2023-08-04 07:49:00+00:00,169.6765,20.7,12.49,47.84626,-54.09684
2023-08-04 07:59:00+00:00,165.8982,20.7,12.49,47.84626,-54.09684
2023-08-04 08:09:00+00:00,169.0898,20.7,12.49,47.84626,-54.09684
2023-08-04 08:19:00+00:00,175.3448,20.75,12.49,47.84626,-54.09684
2023-08-04 08:29:00+00:00,176.9315,20.76,12.49,47.84626,-54.09684
2023-08-04 08:39:00+00:00,180.0965,20.77,12.49,47.84626,-54.09684
2023-08-04 08:49:00+00:00,188.0531,20.77,12.49,47.84626,-54.09684
2023-08-04 08:59:00+00:00,190.6914,20.76,12.49,47.84626,-54.09684
2023-08-04 09:09:00+00:00,190.2965,20.76,12.49,47.84626,-54.09684
2023-08-04 09:19:00+00:00,196.1565,20.77,12.49,47.84626,-54.09684
2023-08-04 09:29:00+00:00,202.7247,20.7,12.49,47.84626,-54.09684
2023-08-04 09:39:00+00:00,203.3498,20.61,12.49,47.84626,-54.09684
2023-08-04 09:49:00+00:00,205.1348,20.6,12.49,47.84626,-54.09684
2023-08-04 09:59:00+00:00,211.6414,20.6,12.49,47.84626,-54.09684
2023-08-04 10:09:00+00:00,216.0815,20.58,12.49,47.84626,-54.09684
2023-08-04 10:19:00+00:00,219.0764,20.6,12.57,47.84626,-54.09684
2023-08-04 10:29:00+00:00,224.1497,20.5,12.57,47.84626,-54.09684
2023-08-04 10:39:00+00:00,231.9247,20.6,12.57,47.84626,-54.09684
2023-08-04 10:49:00+00:00,237.1531,20.66,12.57,47.84626,-54.09684
2023-08-04 10:59:00+00:00,243.2381,20.5,12.57,47.84626,-54.09684
2023-08-04 11:09:00+00:00,251.568,20.46,12.57,47.84626,-54.09684
2023-08-04 11:19:01+00:00,260.4498,20.3,12.81,47.84626,-54.09684
2023-08-04 11:29:01+00:00,268.373,20.1,12.81,47.84626,-54.09684
2023-08-04 11:39:01+00:00,277.7114,20.09,12.81,47.84626,-54.09684
2023-08-04 11:49:01+00:00,287.6931,19.85,12.81,47.84626,-54.09684
2023-08-04 11:59:01+00:00,296.4947,19.65,12.81,47.84626,-54.09684
2023-08-04 12:09:01+00:00,302.603,19.3,12.81,47.84626,-54.09684
2023-08-04 12:19:00+00:00,311.1964,19.2,12.97,47.84626,-54.09684
2023-08-04 12:29:00+00:00,318.9547,19.2,12.97,47.84626,-54.09684
2023-08-04 12:39:00+00:00,326.2413,19.1,12.97,47.84626,-54.09684
2023-08-04 12:49:00+00:00,330.2496,19.1,12.97,47.84626,-54.09684
2023-08-04 12:59:00+00:00,334.4863,19.14,12.97,47.84626,-54.09684
2023-08-04 13:09:00+00:00,341.7745,19.1,12.97,47.84626,-54.09684
2023-08-04 13:19:00+00:00,345.3013,19.1,13.05,47.84626,-54.09684
2023-08-04 13:29:00+00:00,348.4597,19.1,13.05,47.84626,-54.09684
2023-08-04 13:39:00+00:00,354.103,19.1,13.05,47.84626,-54.09684
2023-08-04 13:49:00+00:00,354.3729,19.1,13.05,47.84626,-54.09684
2023-08-04 13:59:00+00:00,354.0012,19.19,13.05,47.84626,-54.09684
2023-08-04 14:09:00+00:00,352.86300000000006,19.2,13.05,47.84626,-54.09684
2023-08-04 14:19:00+00:00,351.7029,19.3,13.05,47.84626,-54.09684
2023-08-04 14:29:00+00:00,347.7129,19.4,13.05,47.84626,-54.09684
2023-08-04 14:39:00+00:00,342.463,19.3,13.05,47.84626,-54.09684
2023-08-04 14:49:00+00:00,340.3912,19.28,13.05,47.84626,-54.09684
2023-08-04 14:59:00+00:00,339.3396,19.6,13.05,47.84626,-54.09684
2023-08-04 15:09:00+00:00,338.4413,19.67,13.05,47.84626,-54.09684
2023-08-04 15:19:00+00:00,332.278,19.84,13.05,47.84626,-54.09684
2023-08-04 15:29:00+00:00,327.2031,19.9,13.05,47.84626,-54.09684
2023-08-04 15:39:00+00:00,323.123,19.9,13.05,47.84626,-54.09684
2023-08-04 15:49:00+00:00,314.053,19.8,13.05,47.84626,-54.09684
2023-08-04 15:59:00+00:00,304.443,19.9,13.05,47.84626,-54.09684
2023-08-04 16:09:00+00:00,296.773,19.93,13.05,47.84626,-54.09684
2023-08-04 16:19:01+00:00,285.9348,19.93,13.05,47.84626,-54.09684
2023-08-04 16:29:01+00:00,273.2781,20.0,13.05,47.84626,-54.09684
2023-08-04 16:39:01+00:00,263.2948,20.1,13.05,47.84626,-54.09684
2023-08-04 16:49:01+00:00,256.3331,20.23,13.05,47.84626,-54.09684
2023-08-04 16:59:01+00:00,242.8314,20.39,13.05,47.84626,-54.09684
2023-08-04 17:09:01+00:00,228.6331,20.51,13.05,47.84626,-54.09684
2023-08-04 17:19:00+00:00,220.2014,20.6,12.97,47.84626,-54.09684
2023-08-04 17:29:00+00:00,213.8365,20.6,12.97,47.84626,-54.09684
2023-08-04 17:39:00+00:00,203.8331,20.6,12.97,47.84626,-54.09684
2023-08-04 17:49:00+00:00,191.5498,20.6,12.97,47.84626,-54.09684
2023-08-04 17:59:00+00:00,183.6898,20.6,12.97,47.84626,-54.09684
2023-08-04 18:09:00+00:00,179.7165,20.6,12.97,47.84626,-54.09684
2023-08-04 18:19:01+00:00,174.3565,20.59,12.81,47.84626,-54.09684
2023-08-04 18:29:01+00:00,168.5198,20.5,12.81,47.84626,-54.09684
2023-08-04 18:39:01+00:00,163.5381,20.49,12.81,47.84626,-54.09684
2023-08-04 18:49:01+00:00,160.6215,20.45,12.81,47.84626,-54.09684
2023-08-04 18:59:01+00:00,156.7198,20.47,12.81,47.84626,-54.09684
2023-08-04 19:09:01+00:00,152.1349,20.5,12.81,47.84626,-54.09684
2023-08-04 19:19:00+00:00,151.9215,20.5,12.73,47.84626,-54.09684
2023-08-04 19:29:00+00:00,153.6349,20.5,12.73,47.84626,-54.09684
2023-08-04 19:39:00+00:00,151.9649,20.48,12.73,47.84626,-54.09684
2023-08-04 19:49:00+00:00,151.4865,20.49,12.73,47.84626,-54.09684
2023-08-04 19:59:00+00:00,154.7265,20.49,12.73,47.84626,-54.09684
2023-08-04 20:09:00+00:00,156.1915,20.5,12.73,47.84626,-54.09684
2023-08-04 20:19:00+00:00,160.8948,20.5,12.65,47.84626,-54.09684
2023-08-04 20:29:00+00:00,165.1882,20.55,12.65,47.84626,-54.09684
2023-08-04 20:39:00+00:00,164.3765,20.72,12.65,47.84626,-54.09684
2023-08-04 20:49:00+00:00,169.8465,20.7,12.65,47.84626,-54.09684
2023-08-04 20:59:00+00:00,179.3665,20.5,12.65,47.84626,-54.09684
2023-08-04 21:09:00+00:00,184.4581,20.46,12.65,47.84626,-54.09684
2023-08-04 21:19:00+00:00,187.3465,20.49,12.65,47.84626,-54.09684
2023-08-04 21:29:00+00:00,195.9481,20.5,12.65,47.84626,-54.09684
2023-08-04 21:39:00+00:00,204.3298,20.0,12.65,47.84626,-54.09684
2023-08-04 21:49:00+00:00,205.8248,20.0,12.65,47.84626,-54.09684
2023-08-04 21:59:00+00:00,210.3781,20.08,12.65,47.84626,-54.09684
2023-08-04 22:09:00+00:00,215.4681,20.02,12.65,47.84626,-54.09684
2023-08-04 22:19:00+00:00,218.2698,20.06,12.65,47.84626,-54.09684
2023-08-04 22:29:00+00:00,222.3681,19.94,12.65,47.84626,-54.09684
2023-08-04 22:39:00+00:00,229.7648,19.8,12.65,47.84626,-54.09684
2023-08-04 22:49:00+00:00,235.5648,19.9,12.65,47.84626,-54.09684
2023-08-04 22:59:00+00:00,241.4181,19.9,12.65,47.84626,-54.09684
2023-08-04 23:09:00+00:00,249.6615,19.9,12.65,47.84626,-54.09684
2023-08-04 23:19:00+00:00,256.9364,19.9,12.65,47.84626,-54.09684
2023-08-04 23:29:00+00:00,264.0831,19.9,12.65,47.84626,-54.09684
2023-08-04 23:39:00+00:00,272.7264,19.9,12.65,47.84626,-54.09684
2023-08-04 23:49:00+00:00,283.488,19.88,12.65,47.84626,-54.09684
2023-08-04 23:59:00+00:00,292.203,19.9,12.65,47.84626,-54.09684
